Вернуться в каталог

BRO-12

АктивенНаукаSSO
NORAD 59108·PAYLOAD·🇫🇷 France

Запущен Mar 4, 2024 с Vandenberg Space Force Base

Loading…

Ближайшие Пролёты (ближайшие 24 часа)

TLE

СвежийSource: Space-Track

Эпоха: Sep 14, 2026, 22:16 UTC

1 59108U 24043L   26257.92808576  .00001162  00000-0  10610-3 0  9994
2 59108  97.8606  29.4818 0009732  60.1745 300.0442 14.97014524138065

Отслеживайте BRO-12 в реальном времени с AllMySat

Download on the App Store